TimeAST,TemperatureF,Dew PointF,Humidity,Sea Level PressureIn,VisibilityMPH,Wind Direction,Wind SpeedMPH,Gust SpeedMPH,PrecipitationIn,Events,Conditions,WindDirDegrees,DateUTC
12:00 AM,77.0,69.8,78,30.01,6.2,East,5.8,-,N/A,,Scattered Clouds,80,2013-03-24 04:00:00
1:00 AM,77.0,69.8,78,29.98,6.2,East,4.6,-,N/A,,Partly Cloudy,80,2013-03-24 05:00:00
2:00 AM,76,69,75,29.98,17,East,5.8,,,,Haze,80,2013-03-24 06:00:00
2:00 AM,77.0,69.8,78,29.98,6.2,East,5.8,-,N/A,,Mostly Cloudy,80,2013-03-24 06:00:00
3:00 AM,77.0,69.8,78,29.95,6.2,ENE,4.6,-,N/A,,Partly Cloudy,70,2013-03-24 07:00:00
4:00 AM,77.0,69.8,78,29.95,6.2,East,5.8,-,N/A,,Partly Cloudy,90,2013-03-24 08:00:00
5:00 AM,76,70,75,29.96,17,East,4.6,,,,Haze,80,2013-03-24 09:00:00
5:00 AM,75.2,69.8,83,29.95,6.2,East,4.6,-,N/A,,Partly Cloudy,80,2013-03-24 09:00:00
6:00 AM,75.2,69.8,83,29.95,6.2,East,5.8,-,N/A,,Scattered Clouds,90,2013-03-24 10:00:00
7:00 AM,77.0,69.8,78,29.98,6.2,East,6.9,-,N/A,,Scattered Clouds,80,2013-03-24 11:00:00
8:00 AM,79,69,65,30.01,17,East,9.2,,,,Haze,80,2013-03-24 12:00:00
8:00 AM,78.8,69.8,74,30.01,6.2,East,9.2,-,N/A,,Mostly Cloudy,80,2013-03-24 12:00:00
9:00 AM,80.6,69.8,70,30.04,6.2,East,9.2,-,N/A,,Mostly Cloudy,80,2013-03-24 13:00:00
10:00 AM,82.4,69.8,66,30.04,6.2,East,8.1,-,N/A,,Partly Cloudy,100,2013-03-24 14:00:00
11:00 AM,82,69,57,30.04,17,East,10.4,,,,Haze,90,2013-03-24 15:00:00
11:00 AM,82.4,69.8,66,30.04,6.2,East,10.4,-,N/A,,Partly Cloudy,90,2013-03-24 15:00:00
12:00 PM,82.4,71.6,70,30.01,6.2,East,10.4,-,N/A,,Scattered Clouds,80,2013-03-24 16:00:00
1:00 PM,82.4,71.6,70,29.98,6.2,East,10.4,-,N/A,,Scattered Clouds,90,2013-03-24 17:00:00
2:00 PM,82,70,59,29.97,17,East,9.2,,,,Haze,80,2013-03-24 18:00:00
2:00 PM,82.4,69.8,66,29.95,6.2,East,9.2,-,N/A,,Scattered Clouds,80,2013-03-24 18:00:00
3:00 PM,82.4,69.8,66,29.95,6.2,East,9.2,-,N/A,,Scattered Clouds,80,2013-03-24 19:00:00
4:00 PM,80.6,69.8,70,29.92,6.2,East,9.2,-,N/A,,Scattered Clouds,80,2013-03-24 20:00:00
5:00 PM,80,69,61,29.93,17,East,10.4,,,,Haze,80,2013-03-24 21:00:00
5:00 PM,80.6,69.8,70,29.92,6.2,East,10.4,-,N/A,,Scattered Clouds,80,2013-03-24 21:00:00
6:00 PM,78.8,68.0,69,29.92,6.2,ENE,9.2,-,N/A,,Scattered Clouds,70,2013-03-24 22:00:00
7:00 PM,77.0,68.0,74,29.92,6.2,East,9.2,-,N/A,,Scattered Clouds,90,2013-03-24 23:00:00
8:00 PM,78,69,67,29.96,17,East,9.2,,,,Haze,90,2013-03-25 00:00:00
8:00 PM,77.0,69.8,78,29.95,6.2,East,9.2,-,N/A,,Scattered Clouds,90,2013-03-25 00:00:00
9:00 PM,77.0,69.8,78,29.95,6.2,East,10.4,-,N/A,,Scattered Clouds,90,2013-03-25 01:00:00
10:00 PM,77.0,68.0,74,29.98,6.2,East,10.4,-,N/A,,Scattered Clouds,90,2013-03-25 02:00:00
11:00 PM,77,69,70,29.98,17,East,8.1,,,,Haze,90,2013-03-25 03:00:00
11:00 PM,77.0,69.8,78,29.98,6.2,East,8.1,-,N/A,,Scattered Clouds,90,2013-03-25 03:00:00